Hourly Data Report for September 04, 2017

All times are specified in Local Standard Time (LST). Add 1 hour to adjust for Daylight Saving Time where and when it is observed.

COMOX A
BRITISH COLUMBIA

49°43'00.000" N
124°54'00.000" W
25.60 m
1021830
71893
YQQ

Download Data

Hourly Data (September 2017)
Hourly Data Report for September 4, 2017
Temp Definition
°C
Dew Point Temp Definition
°C
Rel Hum Definition
%
Wind Dir Definition
10's deg

Wind Spd Definition
km/h
Visibility Definition
km
Stn Press Definition
kPa
Hmdx Definition


Wind Chill Definition


Weather Definition


TIME
00:00 23.1 12.4 51 33 13 32.2 101.57 26   Clear
01:00 20.5 13.6 65 33 11 32.2 101.58     Clear
02:00 19.9 12.6 63 33 13 32.2 101.58     Clear
03:00 17.9 13.2 74 35 11 32.2 101.59     Clear
04:00 18.1 13.9 76 34 11 32.2 101.60     Clear
05:00 16.5 12.2 76   0 32.2 101.61     Clear
06:00 16.3 12.4 78   0 32.2 101.63     Clear
07:00 17.8 13.1 74 34 4 32.2 101.63     Clear
08:00 20.4 14.7 70 34 17 32.2 101.63     Clear
09:00 22.1 15.1 65 35 15 32.2 101.62 26   Clear
10:00 23.4 14.9 59 34 13 32.2 101.59 27   Clear
11:00 25.7 14.7 51 34 17 32.2 101.52 29   Clear
12:00 27.8 14.0 43 34 17 32.2 101.47 31   Clear
13:00 29.0 13.6 39 34 17 32.2 101.40 32   Mainly Clear
14:00 29.6 12.6 35 1 13 32.2 101.34 32   Mainly Clear
15:00 31.0 12.6 32 36 15 32.2 101.25 34   Mainly Clear
16:00 30.9 12.2 32 1 9 32.2 101.18 33   Mainly Clear
17:00 30.8 12.1 32 35 7 32.2 101.11 33   Mainly Clear
18:00 30.3 12.2 33 34 6 32.2 101.04 33   Mainly Clear
19:00 28.0 13.4 41   0 32.2 100.99 31   Mainly Clear
20:00 25.7 13.4 47 28 7 32.2 100.99 29   Mainly Clear
21:00 24.9 13.5 49 32 9 32.2 100.98 28   Mainly Clear
22:00 22.7 13.6 56 32 4 32.2 100.99 26   Mainly Clear
23:00 21.5 13.6 61 32 4 32.2 101.00 25   Mostly Cloudy

Notes on Data Quality.

Legend

  • E = Estimated
  • M = Missing
  • NA = Not Available
  • ‡ = Partner data that is not subject to review by the National Climate Archives
Date modified: